Ankeny, IA

5:13 PM CST on December 07, 2016 (GMT -0600)
Ankeny Regional

Weather History for KIKV - January, 2013

Change the Weather History Date:

Saturday, January 19, 2013

  Actual Average (KDSM) Record (KDSM)
Temperature  
Mean Temperature 34 °F 22 °F  
Max Temperature 51 °F 31 °F 57 °F (1914)
Min Temperature 17 °F 14 °F -26 °F (1892)
Degree Days  
Heating Degree Days 31 43  
Month to date heating degree days 810  
Since 1 July heating degree days 3277  
Cooling Degree Days 0 0  
Month to date cooling degree days 0  
Year to date cooling degree days 0  
Moisture  
Dew Point 24 °F    
Average Humidity 55    
Maximum Humidity 70    
Minimum Humidity 32    
Precipitation  
Precipitation 0.00 in 0.03 in 0.50 in (1935)
Month to date precipitation 0.60  
Year to date precipitation 0.60  
Snow  
Snow 0.00 in 0.20 in 4.10 in (1938)
Month to date snowfall 5.0  
Since 1 July snowfall 16.9  
Snow Depth -    
Sea Level Pressure  
Sea Level Pressure 29.96 in    
Wind  
Wind Speed 13 mph (West)    
Max Wind Speed 29 mph    
Max Gust Speed 39 mph    
Visibility 10 miles    
Events      
T = Trace of Precipitation, MM = Missing Value Source: NWS Daily Summary

Daily Weather History Graph

Daily Weather History Graph

Search for Another Location

Airport or City:

Trip Planner

Search our weather history database for the weather conditions in past years. The results will help you decide how hot, cold, wet, or windy it might be!

Date:

Astronomy

Jan. 19, 2013 Rise Set
Actual Time 7:36 AM CST 5:13 PM CST
Civil Twilight 7:06 AM CST 5:44 PM CST
Nautical Twilight 6:32 AM CST 6:18 PM CST
Astronomical Twilight 5:59 AM CST 6:51 PM CST
Moon 11:41 AM CST (1/19) 1:10 AM CST (1/19)
Length of Visible Light 10h 38m
Length of Day
9h 37m
First Quarter, 57% of the Moon is Illuminated
Jan 19
First Quarter
Jan 26
Full
Feb 3
Last Quarter
Feb 10
New
Feb 17
First Quarter

Hourly Weather History & Observations

Time (CST) Temp. Windchill Dew Point Humidity Pressure Visibility Wind Dir Wind Speed Gust Speed Precip Events Conditions
12:15 AM 41.0 °F 34.7 °F 28.4 °F 61% 29.87 in 10.0 mi SSW 10.4 mph - N/A   Clear
12:35 AM 41.0 °F 35.2 °F 28.4 °F 61% 29.86 in 10.0 mi SSW 9.2 mph - N/A   Clear
12:55 AM 41.0 °F 34.3 °F 28.4 °F 61% 29.86 in 10.0 mi SW 11.5 mph 17.3 mph N/A   Clear
1:15 AM 41.0 °F 34.7 °F 28.4 °F 61% 29.86 in 10.0 mi SW 10.4 mph 17.3 mph N/A   Clear
1:35 AM 41.0 °F 34.3 °F 28.4 °F 61% 29.86 in 10.0 mi SW 11.5 mph - N/A   Clear
1:55 AM 41.0 °F 34.3 °F 28.4 °F 61% 29.85 in 10.0 mi SW 11.5 mph - N/A   Clear
2:15 AM 41.0 °F 35.2 °F 28.4 °F 61% 29.86 in 10.0 mi SW 9.2 mph - N/A   Clear
2:35 AM 39.2 °F 33.0 °F 28.4 °F 65% 29.86 in 10.0 mi SW 9.2 mph - N/A   Clear
2:55 AM 39.2 °F 33.0 °F 28.4 °F 65% 29.85 in 10.0 mi SW 9.2 mph - N/A   Clear
3:15 AM 39.2 °F 33.6 °F 28.4 °F 65% 29.85 in 10.0 mi SW 8.1 mph - N/A   Clear
3:35 AM 39.2 °F 34.2 °F 28.4 °F 65% 29.84 in 10.0 mi SW 6.9 mph - N/A   Clear
3:55 AM 39.2 °F 33.6 °F 28.4 °F 65% 29.83 in 10.0 mi SW 8.1 mph - N/A   Clear
4:15 AM 39.2 °F 33.0 °F 28.4 °F 65% 29.83 in 10.0 mi SW 9.2 mph - N/A   Clear
4:35 AM 39.2 °F 33.6 °F 28.4 °F 65% 29.83 in 10.0 mi SW 8.1 mph - N/A   Clear
4:55 AM 39.2 °F 35.9 °F 28.4 °F 65% 29.83 in 10.0 mi SW 4.6 mph - N/A   Clear
5:15 AM 37.4 °F 32.1 °F 28.4 °F 70% 29.83 in 10.0 mi SW 6.9 mph - N/A   Clear
5:35 AM 37.4 °F 31.4 °F 28.4 °F 70% 29.82 in 10.0 mi SSW 8.1 mph - N/A   Clear
5:55 AM 39.2 °F 33.6 °F 28.4 °F 65% 29.82 in 10.0 mi SSW 8.1 mph - N/A   Clear
6:55 AM 37.4 °F 30.8 °F 28.4 °F 70% 29.82 in 10.0 mi SSW 9.2 mph - N/A   Clear
7:15 AM 37.4 °F 30.8 °F 28.4 °F 70% 29.81 in 10.0 mi SW 9.2 mph - N/A   Clear
7:55 AM 37.4 °F 32.1 °F 28.4 °F 70% 29.85 in 10.0 mi NW 6.9 mph - N/A   Clear
8:15 AM 37.4 °F 31.4 °F 28.4 °F 70% 29.83 in 10.0 mi WSW 8.1 mph - N/A   Clear
8:35 AM 37.4 °F 30.8 °F 28.4 °F 70% 29.84 in 10.0 mi SW 9.2 mph - N/A   Clear
9:35 AM 39.2 °F 33.0 °F 28.4 °F 65% 29.87 in 10.0 mi West 9.2 mph - N/A   Clear
9:55 AM 37.4 °F 30.3 °F 28.4 °F 70% 29.87 in 10.0 mi WSW 10.4 mph - N/A   Clear
10:15 AM 42.8 °F 36.6 °F 28.4 °F 57% 29.87 in 10.0 mi WSW 11.5 mph 16.1 mph N/A   Clear
10:35 AM 42.8 °F 35.8 °F 26.6 °F 53% 29.88 in 10.0 mi West 13.8 mph - N/A   Clear
11:15 AM 46.4 °F 40.7 °F 26.6 °F 46% 29.87 in 10.0 mi West 12.7 mph 19.6 mph N/A   Clear
11:35 AM 48.2 °F - 26.6 °F 43% 29.86 in 10.0 mi West 17.3 mph 21.9 mph N/A   Clear
11:55 AM 50.0 °F - 26.6 °F 40% 29.86 in 10.0 mi West 16.1 mph 21.9 mph N/A   Clear
12:15 PM 51.8 °F - 26.6 °F 38% 29.85 in 10.0 mi WNW 18.4 mph 21.9 mph N/A   Clear
12:35 PM 50.0 °F - 26.6 °F 40% 29.85 in 10.0 mi WNW 16.1 mph 23.0 mph N/A   Clear
12:55 PM 51.8 °F - 26.6 °F 38% 29.86 in 10.0 mi WNW 23.0 mph 31.1 mph N/A   Clear
1:35 PM 51.8 °F - 26.6 °F 38% 29.87 in 10.0 mi WNW 20.7 mph 27.6 mph N/A   Clear
1:55 PM 50.0 °F - 28.4 °F 43% 29.88 in 10.0 mi WNW 21.9 mph 28.8 mph N/A   Clear
2:15 PM 50.0 °F - 28.4 °F 43% 29.88 in 10.0 mi WNW 15.0 mph 29.9 mph N/A   Clear
2:35 PM 50.0 °F - 28.4 °F 43% 29.89 in 10.0 mi WNW 18.4 mph 26.5 mph N/A   Clear
2:55 PM 50.0 °F - 28.4 °F 43% 29.90 in 10.0 mi West 12.7 mph 21.9 mph N/A   Clear
3:15 PM 50.0 °F - 28.4 °F 43% 29.91 in 10.0 mi WNW 17.3 mph 26.5 mph N/A   Clear
3:35 PM 50.0 °F - 28.4 °F 43% 29.92 in 10.0 mi WNW 20.7 mph 27.6 mph N/A   Clear
3:55 PM 48.2 °F - 28.4 °F 46% 29.94 in 10.0 mi NW 20.7 mph 32.2 mph N/A   Clear
4:15 PM 48.2 °F - 28.4 °F 46% 29.96 in 10.0 mi NW 15.0 mph 24.2 mph N/A   Clear
4:35 PM 48.2 °F - 30.2 °F 50% 29.97 in 10.0 mi NW 12.7 mph 25.3 mph N/A   Clear
4:55 PM 46.4 °F 38.5 °F 28.4 °F 50% 29.99 in 10.0 mi NW 21.9 mph 35.7 mph N/A   Clear
5:15 PM 44.6 °F 37.8 °F 28.4 °F 53% 30.00 in 10.0 mi WNW 15.0 mph 25.3 mph N/A   Clear
5:35 PM 44.6 °F 37.8 °F 28.4 °F 53% 30.01 in 10.0 mi WNW 15.0 mph 26.5 mph N/A   Clear
5:55 PM 42.8 °F 35.4 °F 28.4 °F 57% 30.03 in 10.0 mi NW 15.0 mph 24.2 mph N/A   Clear
6:15 PM 42.8 °F 35.1 °F 30.2 °F 61% 30.05 in 10.0 mi NW 16.1 mph 21.9 mph N/A   Clear
6:35 PM 42.8 °F 36.6 °F 30.2 °F 61% 30.06 in 10.0 mi WNW 11.5 mph 21.9 mph N/A   Scattered Clouds
6:55 PM 39.2 °F 30.8 °F 28.4 °F 65% 30.07 in 10.0 mi WNW 15.0 mph 19.6 mph N/A   Scattered Clouds
7:15 PM 39.2 °F 29.0 °F 26.6 °F 61% 30.08 in 10.0 mi NW 21.9 mph 29.9 mph N/A   Clear
7:35 PM 39.2 °F 29.3 °F 24.8 °F 56% 30.09 in 10.0 mi NW 20.7 mph 32.2 mph N/A   Scattered Clouds
7:55 PM 37.4 °F 25.2 °F 15.8 °F 41% 30.11 in 10.0 mi WNW 28.8 mph 35.7 mph N/A   Scattered Clouds
8:15 PM 33.8 °F 21.0 °F 6.8 °F 32% 30.12 in 10.0 mi WNW 25.3 mph 39.1 mph N/A   Clear
8:35 PM 32.0 °F 21.6 °F 8.6 °F 38% 30.14 in 10.0 mi NW 15.0 mph 29.9 mph N/A   Clear
8:55 PM 30.2 °F 17.8 °F 14.0 °F 51% 30.15 in 10.0 mi WNW 19.6 mph 32.2 mph N/A   Clear
9:15 PM 30.2 °F 20.2 °F 19.4 °F 64% 30.16 in 10.0 mi NNW 12.7 mph 25.3 mph N/A   Mostly Cloudy
9:35 PM 28.4 °F 15.4 °F 15.8 °F 59% 30.18 in 10.0 mi NW 19.6 mph 26.5 mph N/A   Mostly Cloudy
9:55 PM 26.6 °F 12.7 °F 12.2 °F 55% 30.20 in 10.0 mi NW 20.7 mph 29.9 mph N/A   Mostly Cloudy
10:15 PM 24.8 °F 10.7 °F 8.6 °F 50% 30.22 in 10.0 mi NW 19.6 mph 26.5 mph N/A   Scattered Clouds
10:35 PM 21.2 °F 4.9 °F 8.6 °F 58% 30.24 in 10.0 mi NW 23.0 mph 29.9 mph N/A   Scattered Clouds
10:55 PM 19.4 °F 2.8 °F 3.2 °F 49% 30.26 in 10.0 mi NW 21.9 mph 27.6 mph N/A   Scattered Clouds
11:15 PM 19.4 °F 5.0 °F 1.4 °F 46% 30.27 in 10.0 mi NW 16.1 mph 27.6 mph N/A   Clear
11:35 PM 17.6 °F 3.7 °F 1.4 °F 49% 30.27 in 10.0 mi NW 13.8 mph 24.2 mph N/A   Clear
11:55 PM 17.6 °F 3.2 °F 1.4 °F 49% 30.27 in 10.0 mi NNW 15.0 mph 20.7 mph N/A   Clear